Time,TemperatureF,DewpointF,PressureIn,WindDirection,WindDirectionDegrees,WindSpeedMPH,WindSpeedGustMPH,Humidity,HourlyPrecipIn,Conditions,Clouds,dailyrainin,SoftwareType,DateUTC
2013-02-20 00:01:00,31.0,14.0,29.52,ENE,71,4.0,9.0,49,0.00,,,0.00,,2013-02-20 07:01:00,
2013-02-20 00:11:00,31.0,14.0,29.52,ENE,71,4.0,9.0,49,0.00,,,0.00,,2013-02-20 07:11:00,
2013-02-20 00:21:00,30.0,14.0,29.52,NE,47,3.0,5.0,50,0.00,,,0.00,,2013-02-20 07:21:00,
2013-02-20 00:31:00,30.0,14.0,29.52,ENE,65,1.0,4.0,50,0.00,,,0.00,,2013-02-20 07:31:00,
2013-02-20 00:41:00,30.0,14.0,29.52,ENE,65,1.0,4.0,50,0.00,,,0.00,,2013-02-20 07:41:00,
2013-02-20 00:52:00,30.0,13.0,29.52,ENE,65,0.0,3.0,49,0.00,,,0.00,,2013-02-20 07:52:00,
2013-02-20 01:01:00,29.0,15.0,29.53,ENE,65,1.0,3.0,55,0.00,,,0.00,,2013-02-20 08:01:00,
2013-02-20 01:11:00,29.0,15.0,29.53,ENE,65,1.0,3.0,55,0.00,,,0.00,,2013-02-20 08:11:00,
2013-02-20 01:21:00,30.0,15.0,29.53,ENE,65,2.0,3.0,52,0.00,,,0.00,,2013-02-20 08:21:00,
2013-02-20 01:31:00,29.0,14.0,29.52,ENE,65,1.0,3.0,54,0.00,,,0.00,,2013-02-20 08:31:00,
2013-02-20 01:41:00,29.0,14.0,29.52,ENE,65,1.0,3.0,54,0.00,,,0.00,,2013-02-20 08:41:00,
2013-02-20 01:52:00,29.0,14.0,29.52,ENE,65,0.0,2.0,54,0.00,,,0.00,,2013-02-20 08:52:00,
2013-02-20 02:01:00,29.0,14.0,29.53,ENE,65,0.0,2.0,54,0.00,,,0.00,,2013-02-20 09:01:00,
2013-02-20 02:11:00,29.0,14.0,29.53,ENE,65,0.0,2.0,54,0.00,,,0.00,,2013-02-20 09:11:00,
2013-02-20 02:21:00,29.0,15.0,29.53,ENE,65,2.0,4.0,56,0.00,,,0.00,,2013-02-20 09:21:00,
2013-02-20 02:31:00,29.0,16.0,29.53,ENE,65,0.0,4.0,59,0.00,,,0.00,,2013-02-20 09:31:00,
2013-02-20 02:41:00,29.0,16.0,29.53,ENE,65,0.0,4.0,59,0.00,,,0.00,,2013-02-20 09:41:00,
2013-02-20 02:51:00,29.0,16.0,29.54,ESE,102,1.0,7.0,58,0.00,,,0.00,,2013-02-20 09:51:00,
2013-02-20 03:01:00,30.0,16.0,29.53,ESE,102,0.0,2.0,56,0.00,,,0.00,,2013-02-20 10:01:00,
2013-02-20 03:12:00,30.0,16.0,29.53,ESE,102,0.0,2.0,56,0.00,,,0.00,,2013-02-20 10:12:00,
2013-02-20 03:21:00,30.0,16.0,29.52,ESE,102,1.0,3.0,56,0.00,,,0.00,,2013-02-20 10:21:00,
2013-02-20 03:31:00,29.0,17.0,29.52,East,101,3.0,5.0,60,0.00,,,0.00,,2013-02-20 10:31:00,
2013-02-20 03:41:00,29.0,17.0,29.52,East,101,3.0,5.0,60,0.00,,,0.00,,2013-02-20 10:41:00,
2013-02-20 03:51:00,28.0,16.0,29.52,ENE,63,2.0,4.0,59,0.00,,,0.00,,2013-02-20 10:51:00,
2013-02-20 04:01:00,28.0,16.0,29.51,NE,44,2.0,5.0,59,0.00,,,0.00,,2013-02-20 11:01:00,
2013-02-20 04:11:00,28.0,15.0,29.51,NE,44,2.0,3.0,58,0.00,,,0.00,,2013-02-20 11:11:00,
2013-02-20 04:21:00,28.0,15.0,29.51,NE,44,2.0,3.0,58,0.00,,,0.00,,2013-02-20 11:21:00,
2013-02-20 04:31:00,28.0,14.0,29.51,NE,44,0.0,0.0,56,0.00,,,0.00,,2013-02-20 11:31:00,
2013-02-20 04:41:00,28.0,14.0,29.51,NE,44,0.0,0.0,56,0.00,,,0.00,,2013-02-20 11:41:00,
2013-02-20 04:52:00,29.0,14.0,29.51,NE,44,0.0,0.0,54,0.00,,,0.00,,2013-02-20 11:52:00,
2013-02-20 05:01:00,30.0,15.0,29.51,NE,44,0.0,1.0,53,0.00,,,0.00,,2013-02-20 12:01:00,
2013-02-20 05:11:00,30.0,15.0,29.51,NE,44,0.0,1.0,53,0.00,,,0.00,,2013-02-20 12:11:00,
2013-02-20 05:21:00,29.0,16.0,29.51,NW,308,2.0,4.0,59,0.00,,,0.00,,2013-02-20 12:21:00,
2013-02-20 05:31:00,25.0,19.0,29.52,NW,308,0.0,3.0,76,0.00,,,0.00,,2013-02-20 12:31:00,
2013-02-20 05:41:00,25.0,19.0,29.52,NW,308,0.0,3.0,76,0.00,,,0.00,,2013-02-20 12:41:00,
2013-02-20 05:52:00,24.0,20.0,29.52,NW,308,1.0,3.0,83,0.00,,,0.00,,2013-02-20 12:52:00,
2013-02-20 06:01:00,24.0,20.0,29.52,NW,308,2.0,3.0,85,0.00,,,0.00,,2013-02-20 13:01:00,
2013-02-20 06:11:00,24.0,20.0,29.52,NW,308,2.0,3.0,85,0.00,,,0.00,,2013-02-20 13:11:00,
2013-02-20 06:22:00,25.0,20.0,29.52,NW,308,3.0,4.0,82,0.00,,,0.00,,2013-02-20 13:22:00,
2013-02-20 06:31:00,25.0,19.0,29.53,West,277,3.0,4.0,78,0.00,,,0.00,,2013-02-20 13:31:00,
2013-02-20 06:42:00,25.0,19.0,29.53,West,277,3.0,4.0,78,0.00,,,0.00,,2013-02-20 13:42:00,
2013-02-20 06:51:00,25.0,20.0,29.53,West,277,4.0,5.0,80,0.00,,,0.00,,2013-02-20 13:51:00,
2013-02-20 07:01:00,24.0,20.0,29.54,West,268,4.0,5.0,83,0.00,,,0.00,,2013-02-20 14:01:00,
2013-02-20 07:11:00,24.0,20.0,29.54,West,268,4.0,5.0,83,0.00,,,0.00,,2013-02-20 14:11:00,
2013-02-20 07:21:00,25.0,21.0,29.53,West,268,4.0,4.0,84,0.00,,,0.00,,2013-02-20 14:21:00,
2013-02-20 07:32:00,24.0,20.0,29.54,WSW,238,4.0,6.0,84,0.00,,,0.00,,2013-02-20 14:32:00,
2013-02-20 07:42:00,24.0,20.0,29.54,WSW,238,4.0,6.0,84,0.00,,,0.00,,2013-02-20 14:42:00,
2013-02-20 07:52:00,24.0,20.0,29.54,WSW,238,3.0,6.0,84,0.00,,,0.00,,2013-02-20 14:52:00,
2013-02-20 08:01:00,23.0,20.0,29.55,WSW,238,4.0,6.0,88,0.00,,,0.00,,2013-02-20 15:01:00,
2013-02-20 08:11:00,23.0,20.0,29.55,WSW,238,4.0,6.0,88,0.00,,,0.00,,2013-02-20 15:11:00,
2013-02-20 08:22:00,23.0,21.0,29.56,WSW,238,3.0,6.0,90,0.00,,,0.00,,2013-02-20 15:22:00,
2013-02-20 08:31:00,23.0,21.0,29.56,WSW,248,3.0,6.0,91,0.00,,,0.00,,2013-02-20 15:31:00,
2013-02-20 08:41:00,23.0,21.0,29.56,WSW,248,3.0,6.0,91,0.00,,,0.00,,2013-02-20 15:41:00,
2013-02-20 08:52:00,22.0,20.0,29.56,SW,231,5.0,6.0,91,0.00,,,0.00,,2013-02-20 15:52:00,
2013-02-20 09:01:00,22.0,20.0,29.57,WSW,254,7.0,9.0,91,0.00,,,0.00,,2013-02-20 16:01:00,
2013-02-20 09:11:00,22.0,20.0,29.57,WSW,254,7.0,9.0,91,0.00,,,0.00,,2013-02-20 16:11:00,
2013-02-20 09:21:00,23.0,21.0,29.57,WSW,244,5.0,7.0,92,0.00,,,0.00,,2013-02-20 16:21:00,
2013-02-20 09:32:00,23.0,21.0,29.57,WSW,252,7.0,10.0,91,0.00,,,0.00,,2013-02-20 16:32:00,
2013-02-20 09:41:00,23.0,21.0,29.57,WSW,252,7.0,10.0,91,0.00,,,0.00,,2013-02-20 16:41:00,
2013-02-20 09:52:00,23.0,21.0,29.58,SW,227,7.0,12.0,92,0.00,,,0.00,,2013-02-20 16:52:00,
2013-02-20 10:01:00,23.0,21.0,29.58,WSW,248,7.0,10.0,92,0.00,,,0.00,,2013-02-20 17:01:00,
2013-02-20 10:11:00,23.0,21.0,29.59,West,261,7.0,11.0,92,0.00,,,0.00,,2013-02-20 17:11:00,
2013-02-20 10:21:00,23.0,21.0,29.59,West,261,7.0,11.0,92,0.00,,,0.00,,2013-02-20 17:21:00,
2013-02-20 10:32:00,24.0,22.0,29.59,West,278,6.0,10.0,91,0.00,,,0.00,,2013-02-20 17:32:00,
2013-02-20 10:41:00,24.0,22.0,29.59,West,278,6.0,10.0,91,0.00,,,0.00,,2013-02-20 17:41:00,
2013-02-20 10:52:00,25.0,23.0,29.59,West,266,7.0,10.0,92,0.00,,,0.00,,2013-02-20 17:52:00,
2013-02-20 11:02:00,25.0,23.0,29.60,West,261,7.0,9.0,92,0.00,,,0.00,,2013-02-20 18:02:00,
2013-02-20 11:11:00,25.0,23.0,29.60,West,261,7.0,9.0,92,0.00,,,0.00,,2013-02-20 18:11:00,
2013-02-20 11:21:00,25.0,23.0,29.60,West,279,7.0,11.0,93,0.00,,,0.00,,2013-02-20 18:21:00,
2013-02-20 11:31:00,24.0,22.0,29.60,West,259,11.0,14.0,93,0.00,,,0.00,,2013-02-20 18:31:00,
2013-02-20 11:41:00,24.0,22.0,29.60,West,259,11.0,14.0,93,0.00,,,0.00,,2013-02-20 18:41:00,
2013-02-20 11:52:00,24.0,22.0,29.61,WSW,254,10.0,14.0,93,0.00,,,0.00,,2013-02-20 18:52:00,
2013-02-20 12:01:00,23.0,21.0,29.61,West,267,11.0,15.0,93,0.00,,,0.00,,2013-02-20 19:01:00,
2013-02-20 12:11:00,23.0,21.0,29.61,West,267,11.0,15.0,93,0.00,,,0.00,,2013-02-20 19:11:00,
2013-02-20 12:21:00,23.0,21.0,29.61,West,265,11.0,16.0,93,0.00,,,0.00,,2013-02-20 19:21:00,
2013-02-20 12:31:00,22.0,20.0,29.61,West,263,10.0,14.0,92,0.00,,,0.00,,2013-02-20 19:31:00,
2013-02-20 12:41:00,22.0,20.0,29.61,West,263,10.0,14.0,92,0.00,,,0.00,,2013-02-20 19:41:00,
2013-02-20 12:52:00,22.0,20.0,29.61,West,261,10.0,14.0,93,0.00,,,0.00,,2013-02-20 19:52:00,
2013-02-20 13:01:00,22.0,20.0,29.60,West,270,9.0,13.0,92,0.00,,,0.00,,2013-02-20 20:01:00,
2013-02-20 13:11:00,22.0,20.0,29.60,West,260,13.0,16.0,92,0.00,,,0.00,,2013-02-20 20:11:00,
2013-02-20 13:21:00,22.0,20.0,29.60,West,260,13.0,16.0,92,0.00,,,0.00,,2013-02-20 20:21:00,
2013-02-20 13:31:00,21.0,19.0,29.60,West,262,11.0,17.0,92,0.00,,,0.00,,2013-02-20 20:31:00,
2013-02-20 13:41:00,21.0,19.0,29.60,West,268,9.0,14.0,92,0.00,,,0.00,,2013-02-20 20:41:00,
2013-02-20 13:51:00,21.0,19.0,29.60,West,268,9.0,14.0,92,0.00,,,0.00,,2013-02-20 20:51:00,
2013-02-20 14:01:00,21.0,19.0,29.60,West,269,12.0,17.0,92,0.00,,,0.00,,2013-02-20 21:01:00,
2013-02-20 14:11:00,21.0,19.0,29.60,WSW,253,14.0,20.0,92,0.00,,,0.00,,2013-02-20 21:11:00,
2013-02-20 14:21:00,21.0,19.0,29.60,WSW,253,14.0,20.0,92,0.00,,,0.00,,2013-02-20 21:21:00,
2013-02-20 14:31:00,21.0,19.0,29.60,West,265,9.0,19.0,92,0.00,,,0.00,,2013-02-20 21:31:00,
2013-02-20 14:41:00,21.0,19.0,29.60,West,265,9.0,19.0,92,0.00,,,0.00,,2013-02-20 21:41:00,
2013-02-20 14:52:00,21.0,19.0,29.60,West,262,13.0,19.0,92,0.00,,,0.00,,2013-02-20 21:52:00,
2013-02-20 15:01:00,21.0,19.0,29.61,WSW,247,13.0,17.0,92,0.00,,,0.00,,2013-02-20 22:01:00,
2013-02-20 15:11:00,21.0,19.0,29.61,WSW,247,13.0,17.0,92,0.00,,,0.00,,2013-02-20 22:11:00,
2013-02-20 15:21:00,21.0,19.0,29.61,WSW,255,13.0,18.0,92,0.00,,,0.00,,2013-02-20 22:21:00,
2013-02-20 15:31:00,21.0,19.0,29.61,West,279,11.0,17.0,92,0.00,,,0.00,,2013-02-20 22:31:00,
2013-02-20 15:41:00,21.0,19.0,29.61,West,279,11.0,17.0,92,0.00,,,0.00,,2013-02-20 22:41:00,
2013-02-20 15:51:00,21.0,19.0,29.61,West,275,13.0,18.0,92,0.00,,,0.00,,2013-02-20 22:51:00,
2013-02-20 16:01:00,21.0,19.0,29.62,WSW,258,14.0,18.0,92,0.00,,,0.00,,2013-02-20 23:01:00,
2013-02-20 16:11:00,21.0,19.0,29.62,WSW,253,13.0,17.0,92,0.00,,,0.00,,2013-02-20 23:11:00,
2013-02-20 16:21:00,21.0,19.0,29.62,WSW,253,13.0,17.0,92,0.00,,,0.00,,2013-02-20 23:21:00,
2013-02-20 16:31:00,21.0,19.0,29.62,West,267,11.0,18.0,92,0.00,,,0.00,,2013-02-20 23:31:00,
2013-02-20 16:42:00,21.0,19.0,29.62,West,267,11.0,18.0,92,0.00,,,0.00,,2013-02-20 23:42:00,
2013-02-20 16:52:00,21.0,19.0,29.62,WSW,258,11.0,15.0,92,0.00,,,0.00,,2013-02-20 23:52:00,
2013-02-20 17:02:00,21.0,19.0,29.63,West,260,11.0,19.0,92,0.00,,,0.00,,2013-02-21 00:02:00,
2013-02-20 17:11:00,21.0,19.0,29.63,West,260,11.0,19.0,92,0.00,,,0.00,,2013-02-21 00:11:00,
2013-02-20 17:21:00,21.0,19.0,29.63,West,264,14.0,18.0,92,0.00,,,0.00,,2013-02-21 00:21:00,
2013-02-20 17:31:00,21.0,19.0,29.63,West,262,10.0,17.0,92,0.00,,,0.00,,2013-02-21 00:31:00,
2013-02-20 17:41:00,21.0,19.0,29.63,West,262,10.0,17.0,92,0.00,,,0.00,,2013-02-21 00:41:00,
2013-02-20 17:52:00,21.0,19.0,29.64,WSW,247,9.0,14.0,92,0.00,,,0.00,,2013-02-21 00:52:00,
2013-02-20 18:01:00,21.0,19.0,29.64,WSW,245,12.0,16.0,92,0.00,,,0.00,,2013-02-21 01:01:00,
2013-02-20 18:11:00,21.0,19.0,29.64,WSW,245,12.0,16.0,92,0.00,,,0.00,,2013-02-21 01:11:00,
2013-02-20 18:21:00,22.0,20.0,29.64,WSW,237,9.0,15.0,92,0.00,,,0.00,,2013-02-21 01:21:00,
2013-02-20 18:31:00,22.0,20.0,29.65,WSW,242,9.0,13.0,92,0.00,,,0.00,,2013-02-21 01:31:00,
2013-02-20 18:41:00,22.0,20.0,29.65,WSW,242,9.0,13.0,92,0.00,,,0.00,,2013-02-21 01:41:00,
2013-02-20 18:52:00,22.0,20.0,29.65,SW,235,9.0,14.0,92,0.00,,,0.00,,2013-02-21 01:52:00,
2013-02-20 19:01:00,22.0,20.0,29.65,West,269,12.0,17.0,93,0.00,,,0.00,,2013-02-21 02:01:00,
2013-02-20 19:11:00,22.0,20.0,29.65,West,269,12.0,17.0,93,0.00,,,0.00,,2013-02-21 02:11:00,
2013-02-20 19:21:00,22.0,20.0,29.66,WSW,256,11.0,18.0,92,0.00,,,0.00,,2013-02-21 02:21:00,
2013-02-20 19:32:00,22.0,20.0,29.66,WSW,253,13.0,16.0,92,0.00,,,0.00,,2013-02-21 02:32:00,
2013-02-20 19:42:00,22.0,20.0,29.66,WSW,253,13.0,16.0,92,0.00,,,0.00,,2013-02-21 02:42:00,
2013-02-20 19:51:00,22.0,20.0,29.66,WSW,253,13.0,16.0,92,0.00,,,0.00,,2013-02-21 02:51:00,
2013-02-20 20:01:00,22.0,20.0,29.67,WSW,237,10.0,16.0,92,0.00,,,0.00,,2013-02-21 03:01:00,
2013-02-20 20:11:00,22.0,20.0,29.67,WSW,237,10.0,16.0,92,0.00,,,0.00,,2013-02-21 03:11:00,
2013-02-20 20:21:00,22.0,20.0,29.67,WSW,246,12.0,21.0,92,0.00,,,0.00,,2013-02-21 03:21:00,
2013-02-20 20:31:00,22.0,20.0,29.67,SW,231,16.0,22.0,92,0.00,,,0.00,,2013-02-21 03:31:00,
2013-02-20 20:41:00,22.0,20.0,29.67,SW,231,16.0,22.0,92,0.00,,,0.00,,2013-02-21 03:41:00,
2013-02-20 20:51:00,22.0,20.0,29.67,West,267,15.0,25.0,91,0.00,,,0.00,,2013-02-21 03:51:00,
2013-02-20 21:01:00,22.0,20.0,29.67,WSW,251,17.0,26.0,90,0.00,,,0.00,,2013-02-21 04:01:00,
2013-02-20 21:11:00,22.0,20.0,29.67,WSW,251,17.0,26.0,90,0.00,,,0.00,,2013-02-21 04:11:00,
2013-02-20 21:21:00,21.0,19.0,29.68,SW,236,15.0,24.0,90,0.00,,,0.00,,2013-02-21 04:21:00,
2013-02-20 21:31:00,21.0,19.0,29.69,West,265,15.0,25.0,90,0.00,,,0.00,,2013-02-21 04:31:00,
2013-02-20 21:41:00,21.0,19.0,29.69,West,265,15.0,25.0,90,0.00,,,0.00,,2013-02-21 04:41:00,
2013-02-20 21:52:00,21.0,19.0,29.69,West,269,15.0,22.0,90,0.00,,,0.00,,2013-02-21 04:52:00,
2013-02-20 22:02:00,21.0,19.0,29.69,WSW,246,12.0,20.0,90,0.00,,,0.00,,2013-02-21 05:02:00,
2013-02-20 22:11:00,21.0,19.0,29.69,WSW,246,12.0,20.0,90,0.00,,,0.00,,2013-02-21 05:11:00,
2013-02-20 22:21:00,21.0,19.0,29.70,WSW,247,13.0,21.0,90,0.00,,,0.00,,2013-02-21 05:21:00,
2013-02-20 22:32:00,20.0,18.0,29.70,WSW,257,13.0,22.0,90,0.00,,,0.00,,2013-02-21 05:32:00,
2013-02-20 22:42:00,20.0,18.0,29.70,WSW,257,13.0,22.0,90,0.00,,,0.00,,2013-02-21 05:42:00,
2013-02-20 22:51:00,20.0,17.0,29.70,SW,234,13.0,18.0,89,0.00,,,0.00,,2013-02-21 05:51:00,
2013-02-20 23:01:00,20.0,18.0,29.70,West,259,15.0,23.0,90,0.00,,,0.00,,2013-02-21 06:01:00,
2013-02-20 23:10:00,20.0,18.0,29.70,West,259,15.0,23.0,90,0.00,,,0.00,,2013-02-21 06:10:00,
2013-02-20 23:20:00,20.0,18.0,29.70,WSW,249,13.0,19.0,91,0.00,,,0.00,,2013-02-21 06:20:00,
2013-02-20 23:31:00,20.0,18.0,29.70,West,267,15.0,20.0,91,0.00,,,0.00,,2013-02-21 06:31:00,
2013-02-20 23:41:00,20.0,18.0,29.70,West,267,15.0,20.0,91,0.00,,,0.00,,2013-02-21 06:41:00,
2013-02-20 23:51:00,19.0,17.0,29.70,West,259,13.0,19.0,91,0.00,,,0.00,,2013-02-21 06:51:00,